Terminal Aerodrome Forecast
Issued by NWS Wilmington, OH

Current Version | Previous Version | Graphics & Text | Print | Product List | Glossary On
Versions: 1 2 3 4 5 6 7 8 9 10 11 12 13 14 15 16 17 18 19 20 21 22 23 24 25 26 27 28 29 30 31 32 33
000
FTUS41 KILN 221000 AAB
TAFILN
TAF AMD
KILN 221009Z 2210/2306 21005KT P6SM -RA SCT040 OVC100
      TEMPO 2210/2214 2SM -TSRA OVC025CB
     FM221400 23007KT P6SM -SHRA VCTS BKN022CB
     FM221900 25009KT P6SM BKN035
     FM222300 25008KT P6SM VCTS BKN035CB
     FM230300 24004KT P6SM SCT040 BKN080=

USA.gov is the U.S. government's official web portal to all federal, state and local government web resources and services.